Location: Asheville, NC
(35.6000°N, 82.5500°W)
Time: 20:38:45
(UTC-05:00)

N. Korean satellite - Visible Passes

Search period start: 12 December 2017 00:00
Search period end: 22 December 2017 00:00
Orbit: 461 x 513 km, 97.2° (Epoch: 11 December)

Date Brightness Start Highest point End Pass type
(mag) Time Alt. Az. Time Alt. Az. Time Alt. Az.
12 Dec 9.2 06:36:53 10° NE 06:40:01 25° E 06:43:05 10° SSE visible
12 Dec 7.0 18:42:42 10° S 18:46:20 66° W 18:50:03 10° NNW visible
13 Dec 10.0 06:14:37 10° ENE 06:16:19 13° E 06:17:59 10° ESE visible
13 Dec 6.7 18:19:13 10° SSE 18:22:49 56° ENE 18:26:29 10° N visible
14 Dec 7.6 17:56:14 10° SE 17:59:23 27° ENE 18:02:33 10° NNE visible
14 Dec 9.8 19:30:38 10° SW 19:32:53 15° W 19:35:09 10° NW visible
15 Dec 7.6 06:59:17 10° NNE 07:02:54 53° E 07:06:26 10° S visible
15 Dec 8.6 19:05:55 10° SSW 19:09:12 31° W 19:12:33 10° NNW visible
16 Dec 9.2 06:36:12 10° NE 06:39:16 25° E 06:42:17 10° SSE visible
16 Dec 7.0 18:41:56 10° S 18:45:35 67° WSW 18:49:19 10° NNW visible
17 Dec 10.0 06:13:59 10° ENE 06:15:33 12° E 06:17:06 10° ESE visible
17 Dec 6.7 18:18:27 10° SSE 18:22:04 55° ENE 18:25:45 10° N visible
18 Dec 7.6 17:55:28 10° SE 17:58:37 27° ENE 18:01:49 10° NNE visible
18 Dec 9.7 19:29:47 10° SW 19:32:06 16° W 19:34:27 10° NW visible
19 Dec 7.6 06:58:32 10° NNE 07:02:07 52° E 07:05:36 10° S visible
19 Dec 8.6 19:05:05 10° SSW 19:08:25 31° W 19:11:48 10° NNW visible
20 Dec 9.2 06:35:27 10° NE 06:38:28 24° E 06:41:25 10° SSE visible
20 Dec 7.0 18:41:07 10° S 18:44:48 68° WSW 18:48:33 10° NNW visible
21 Dec 10.0 06:13:18 10° ENE 06:14:44 12° E 06:16:09 10° ESE visible
21 Dec 6.7 18:17:38 10° SSE 18:21:16 55° ENE 18:24:57 10° N visible
